Weather History for Oskaloosa, IA

Change the Weather History Date:

Saturday, January 19, 2013

  Actual Average (KOTM) Record (KOTM)
Temperature  
Mean Temperature 40 °F 22 °F  
Max Temperature 55 °F 31 °F 60 °F (1952)
Min Temperature 22 °F 13 °F -21 °F (1936)
Degree Days  
Heating Degree Days 26 43  
Month to date heating degree days 811  
Since 1 July heating degree days 3316  
Cooling Degree Days 0 0  
Month to date cooling degree days 0  
Year to date cooling degree days 0  
Moisture  
Dew Point 29 °F    
Average Humidity 60    
Maximum Humidity 76    
Minimum Humidity 35    
Precipitation  
Precipitation 0.00 in 0.02 in 1.31 in (1907)
Month to date precipitation 0.58  
Year to date precipitation 0.58  
Sea Level Pressure  
Sea Level Pressure 29.94 in    
Wind  
Wind Speed 16 mph (West)    
Max Wind Speed 32 mph    
Max Gust Speed 40 mph    
Visibility 10 miles    
Events      
T = Trace of Precipitation, MM = Missing Value Source: NWS Daily Summary

Daily Weather History Graph

Daily Weather History Graph

Search for Another Location

Airport:

Trip Planner

Search our weather history database for the weather conditions in past years. The results will help you decide how hot, cold, wet, or windy it might be!

Date:

Astronomy

Jan. 19, 2013 Rise Set
Actual Time 7:31 AM CST 5:10 PM CST
Civil Twilight 7:01 AM CST 5:41 PM CST
Nautical Twilight 6:27 AM CST 6:14 PM CST
Astronomical Twilight 5:54 AM CST 6:47 PM CST
Moon 11:38 AM CST (1/19) 1:05 AM CST (1/19)
Length of Visible Light 10h 39m
Length of Day
9h 39m
First Quarter, 57% of the Moon is Illuminated
Jan 19
First Quarter
Jan 26
Full
Feb 3
Last Quarter
Feb 10
New
Feb 17
First Quarter

Hourly Weather History & Observations

Time (CST) Temp. Windchill Dew Point Humidity Pressure Visibility Wind Dir Wind Speed Gust Speed Precip Events Conditions
12:15 AM 40.5 °F 32.5 °F 30.2 °F 67% 29.91 in 10.0 mi SW 15.0 mph - N/A   Clear
12:35 AM 39.7 °F 32.3 °F 30.2 °F 69% 29.91 in 10.0 mi SW 12.7 mph - N/A   Clear
12:55 AM 40.3 °F 32.6 °F 30.2 °F 67% 29.90 in 10.0 mi SW 13.8 mph - N/A   Clear
1:15 AM 39.4 °F 31.8 °F 30.2 °F 70% 29.91 in 10.0 mi SW 12.7 mph - N/A   Clear
1:35 AM 39.2 °F 31.6 °F 30.2 °F 70% 29.90 in 10.0 mi SW 12.7 mph - N/A   Clear
1:55 AM 38.8 °F 31.6 °F 30.2 °F 71% 29.90 in 10.0 mi SW 11.5 mph - N/A   Clear
2:15 AM 39.2 °F 31.2 °F 30.6 °F 71% 29.90 in 10.0 mi SW 13.8 mph - N/A   Clear
2:35 AM 39.7 °F 31.5 °F 30.7 °F 70% 29.89 in 10.0 mi SW 15.0 mph - N/A   Clear
2:55 AM 39.7 °F 31.9 °F 30.7 °F 70% 29.89 in 10.0 mi SW 13.8 mph - N/A   Clear
3:15 AM 40.3 °F 31.9 °F 30.9 °F 69% 29.88 in 10.0 mi SW 16.1 mph - N/A   Clear
3:35 AM 40.5 °F 32.1 °F 30.9 °F 69% 29.87 in 10.0 mi SW 16.1 mph - N/A   Clear
3:55 AM 40.5 °F 32.5 °F 30.9 °F 69% 29.87 in 10.0 mi SW 15.0 mph - N/A   Clear
4:15 AM 40.3 °F 32.2 °F 30.7 °F 69% 29.87 in 10.0 mi SW 15.0 mph - N/A   Clear
4:35 AM 40.1 °F 31.6 °F 30.7 °F 69% 29.86 in 10.0 mi SW 16.1 mph - N/A   Clear
4:55 AM 40.1 °F 32.4 °F 30.7 °F 69% 29.86 in 10.0 mi SW 13.8 mph - N/A   Clear
5:15 AM 39.4 °F 32.3 °F 30.7 °F 71% 29.86 in 10.0 mi SW 11.5 mph - N/A   Clear
5:35 AM 39.2 °F 31.2 °F 30.6 °F 71% 29.85 in 10.0 mi SW 13.8 mph - N/A   Clear
5:55 AM 38.5 °F 30.3 °F 30.2 °F 72% 29.85 in 10.0 mi SW 13.8 mph - N/A   Clear
7:15 AM 37.4 °F 29.8 °F 30.6 °F 76% 29.85 in 10.0 mi SW 11.5 mph - N/A   Clear
7:55 AM 38.1 °F 29.8 °F 30.9 °F 75% 29.85 in 10.0 mi SW 13.8 mph - N/A   Clear
8:15 AM 39.7 °F 31.5 °F 31.5 °F 72% 29.84 in 10.0 mi SW 15.0 mph - N/A   Clear
8:35 AM 41.0 °F 33.1 °F 31.5 °F 69% 29.85 in 10.0 mi SW 15.0 mph - N/A   Scattered Clouds
9:55 AM 43.7 °F 36.0 °F 32.0 °F 63% 29.89 in 10.0 mi West 17.3 mph 21.9 mph N/A   Scattered Clouds
10:15 AM 43.3 °F 36.1 °F 32.0 °F 64% 29.89 in 10.0 mi WSW 15.0 mph - N/A   Scattered Clouds
10:35 AM 44.4 °F 37.2 °F 32.0 °F 62% 29.87 in 10.0 mi WSW 16.1 mph - N/A   Scattered Clouds
11:15 AM 45.3 °F 38.4 °F 32.0 °F 60% 29.87 in 10.0 mi WSW 16.1 mph - N/A   Clear
11:35 AM 47.8 °F - 31.8 °F 54% 29.87 in 10.0 mi West 17.3 mph 24.2 mph N/A   Clear
11:55 AM 49.3 °F - 31.6 °F 51% 29.86 in 10.0 mi West 18.4 mph 23.0 mph N/A   Clear
12:15 PM 50.7 °F - 31.3 °F 47% 29.85 in 10.0 mi West 12.7 mph - N/A   Clear
12:35 PM 52.2 °F - 30.9 °F 44% 29.84 in 10.0 mi West 16.1 mph - N/A   Clear
12:55 PM 53.8 °F - 30.0 °F 40% 29.84 in 10.0 mi West 18.4 mph - N/A   Clear
1:15 PM 54.7 °F - 29.1 °F 38% 29.84 in 10.0 mi West 18.4 mph 23.0 mph N/A   Clear
1:35 PM 55.4 °F - 28.4 °F 36% 29.84 in 10.0 mi West 18.4 mph 23.0 mph N/A   Clear
1:55 PM 55.4 °F - 27.9 °F 35% 29.85 in 10.0 mi WNW 23.0 mph 31.1 mph N/A   Clear
2:15 PM 55.6 °F - 28.4 °F 35% 29.85 in 10.0 mi WNW 23.0 mph - N/A   Clear
2:35 PM 55.0 °F - 28.4 °F 36% 29.86 in 10.0 mi WNW 26.5 mph 31.1 mph N/A   Clear
2:55 PM 55.0 °F - 28.8 °F 37% 29.86 in 10.0 mi WNW 23.0 mph 29.9 mph N/A   Clear
3:15 PM 54.5 °F - 29.8 °F 39% 29.87 in 10.0 mi WNW 24.2 mph 29.9 mph N/A   Clear
3:35 PM 53.6 °F - 29.7 °F 40% 29.89 in 10.0 mi WNW 24.2 mph 31.1 mph N/A   Clear
3:55 PM 52.7 °F - 30.2 °F 42% 29.90 in 10.0 mi WNW 20.7 mph - N/A   Clear
4:15 PM 51.6 °F - 30.6 °F 45% 29.91 in 10.0 mi WNW 20.7 mph 26.5 mph N/A   Clear
4:35 PM 50.2 °F - 31.1 °F 48% 29.92 in 10.0 mi WNW 18.4 mph - N/A   Clear
4:55 PM 48.0 °F - 31.3 °F 52% 29.95 in 10.0 mi WNW 16.1 mph - N/A   Clear
5:15 PM 46.8 °F - 31.6 °F 56% 29.97 in 10.0 mi WNW 19.6 mph 23.0 mph N/A   Clear
5:35 PM 45.9 °F 39.4 °F 31.8 °F 58% 29.98 in 10.0 mi WNW 15.0 mph - N/A   Clear
5:55 PM 44.8 °F 37.4 °F 32.0 °F 61% 29.99 in 10.0 mi WNW 17.3 mph 26.5 mph N/A   Clear
6:15 PM 43.2 °F 35.3 °F 32.0 °F 65% 30.00 in 10.0 mi WNW 17.3 mph - N/A   Clear
6:35 PM 43.3 °F 35.5 °F 31.8 °F 64% 30.01 in 10.0 mi WNW 17.3 mph 25.3 mph N/A   Clear
6:55 PM 43.2 °F 33.6 °F 31.6 °F 64% 30.02 in 10.0 mi NW 25.3 mph 35.7 mph N/A   Clear
7:15 PM 42.3 °F 33.1 °F 31.1 °F 65% 30.03 in 10.0 mi WNW 21.9 mph 29.9 mph N/A   Clear
7:35 PM 41.0 °F 32.2 °F 31.1 °F 68% 30.04 in 10.0 mi NW 18.4 mph 26.5 mph N/A   Clear
7:55 PM 40.1 °F 31.6 °F 30.7 °F 69% 30.05 in 10.0 mi NW 16.1 mph 20.7 mph N/A   Clear
8:15 PM 39.7 °F 30.3 °F 30.2 °F 69% 30.06 in 10.0 mi NW 19.6 mph - N/A   Scattered Clouds
8:35 PM 39.4 °F 29.5 °F 30.2 °F 70% 30.07 in 10.0 mi NW 20.7 mph 25.3 mph N/A   Mostly Cloudy
8:55 PM 38.1 °F 25.5 °F 20.7 °F 49% 30.08 in 10.0 mi NW 32.2 mph 40.3 mph N/A   Scattered Clouds
9:15 PM 36.5 °F 25.7 °F 18.7 °F 49% 30.09 in 10.0 mi NW 20.7 mph 36.8 mph N/A   Clear
9:35 PM 34.7 °F 24.7 °F 20.5 °F 56% 30.11 in 10.0 mi NW 16.1 mph - N/A   Clear
9:55 PM 31.8 °F 17.9 °F 23.7 °F 72% 30.14 in 10.0 mi NNW 27.6 mph 35.7 mph N/A   Clear
10:15 PM 29.7 °F 15.8 °F 21.0 °F 70% 30.16 in 10.0 mi NNW 24.2 mph 32.2 mph N/A   Scattered Clouds
10:35 PM 27.1 °F 11.6 °F 17.8 °F 68% 30.19 in 10.0 mi NNW 27.6 mph 36.8 mph N/A   Scattered Clouds
10:55 PM 25.9 °F 9.9 °F 16.5 °F 68% 30.21 in 10.0 mi NW 27.6 mph 32.2 mph N/A   Clear
11:15 PM 24.8 °F 9.0 °F 14.7 °F 66% 30.23 in 10.0 mi NNW 25.3 mph 33.4 mph N/A   Clear
11:35 PM 22.8 °F 7.0 °F 12.4 °F 64% 30.24 in 10.0 mi NNW 23.0 mph 31.1 mph N/A   Clear